Location: Antioch Church
(34.9543°N, 88.5145°W)
Time: 06:36:58
(UTC+00:00)

Cosmos 2263 Rocket - Pass Details

Date: 11 December 2019
Orbit: 824 x 848 km, 71.0° (Epoch: 26 January)

Event Time Altitude Azimuth Distance (km) Brightness Sun altitude
Exits shadow 09:45:12 24° 134° (SE) 1,656 4.0 -37.3°
Maximum altitude 09:47:00 29° 103° (ESE) 1,481 3.9 -37.0°
Drops below altitude 10° 09:51:42 10° 45° (NE) 2,428 5.0 -36.0°
Sets 09:54:25 0° 34° (NE) 3,364 5.7 -35.5°
